Location: ????????
(55.6333°N, 37.7000°E)
Time: 04:16:59
(UTC+00:00)

USA 238 - Pass Details

Date: 19 May 2025
Orbit: 897 x 1314 km, 63.4° (Epoch: 11 June)

Event Time Altitude Azimuth Distance (km) Brightness Sun altitude
Rises 23:06:17 0° 307° (NW) 3,869 6.8 -11.4°
Reaches altitude 10° 23:08:50 10° 308° (NW) 2,969 6.2 -11.3°
Maximum altitude 23:16:00 88° 38° (NE) 1,195 4.0 -10.8°
Drops below altitude 10° 23:23:53 10° 130° (SE) 3,245 6.1 -10.3°
Sets 23:26:47 0° 130° (SE) 4,248 6.7 -10.1°
